AirNav   TITAN Aviation Fuels
 
 1483 users online  

CA57 Blake Sky Park Airport
Vacaville, California, USA

GOING TO VACAVILLE?


FAA INFORMATION EFFECTIVE 21 APRIL 2022

Location

FAA Identifier: CA57
Lat/Long: 38-27-29.6690N 122-02-43.8890W
38-27.494483N 122-02.731483W
38.4582414,-122.0455247
(estimated)
Elevation: 310 ft. / 94 m (estimated)
Variation: 16E (1985)
From city: 6 miles NW of VACAVILLE, CA
Time zone: UTC -7 (UTC -8 during Standard Time)
Zip code: 95688

Airport Operations

Airport use: CLOSED INDEFINITELY
Activation date: 08/1972
Control tower: no
ARTCC: OAKLAND CENTER
FSS: RANCHO MURIETA FLIGHT SERVICE STATION
Attendance: DAYLIGHT HOURS
Wind indicator: yes
Segmented circle: yes

Airport Communications

WX ASOS at VCB (6 nm SE): 134.75 (707-448-1594)
WX AWOS-3P at DWA (11 nm NE): 125.775 (530-750-2759)
WX AWOS-3 at EDU (13 nm E): 119.025 (530-754-6839)
WX ASOS at APC (18 nm SW): PHONE 707-252-7916

Nearby radio navigation aids

VOR radial/distance  VOR name  Freq  Var
SGDr026/22.8SCAGGS ISLAND VORTAC112.1017E
SACr255/23.2SACRAMENTO VORTAC115.2017E
CCRr343/24.8CONCORD VOR/DME117.0017E
MCCr230/32.6MC CLELLAN VOR/DME109.2017E
ILAr163/36.8WILLIAMS VORTAC114.4018E

Airport Services

Airframe service: MINOR
Powerplant service: MINOR

Runway Information

Runway 17/35

Dimensions: 1600 x 75 ft. / 488 x 23 m
Surface: turf
RUNWAY 17  RUNWAY 35
Traffic pattern: rightleft
Obstructions: 30 ft. plines, 400 ft. from runwaynone

Airport Ownership and Management from official FAA records

Ownership: Privately-owned
Owner: WM K BLAKE
8100 PLEASANTS VALLEY RD.
VACAVILLE, CA 95688
Phone 707-448-7280
Manager: WM K BLAKE
8100 PLEASANTS VALLEY RD.
VACAVILLE, CA 95688
Phone 707-448-7280

Airport Operational Statistics

Aircraft based on the field: 1
Helicopters: 1
    

Additional Remarks

FOR CD CTC OAKLAND ARTCC AT 510-745-3380.
(ARPT STATUS) ARPT CLSD INDEFLY.

Instrument Procedures

There are no published instrument procedures at CA57.

Some nearby airports with instrument procedures:

KVCB - Nut Tree Airport (6 nm SE)
KDWA - Yolo County Airport (11 nm NE)
KEDU - University Airport (13 nm E)
KSUU - Travis Air Force Base (13 nm SE)
O41 - Watts-Woodland Airport (15 nm NE)
KAPC - Napa County Airport (18 nm SW)
 
Loc | Ops | Rwys | IFR | FBO | Links
Com | Nav | Svcs | Stats | Notes

Sonoma Jet Center
 
Area around CA57 (Blake Sky Park Airport)
 
Road maps at: MapQuest Bing Google
 
Aerial photo
No photo
 
Sectional chart

 
Airport distance calculator
Flying to Blake Sky Park Airport? Find the distance to fly.

From to CA57

Sunrise and sunset
Times for 18-May-2022
 Local
(UTC-7)
 Zulu
(UTC)
Morning civil twilight05:2512:25
Sunrise05:5512:55
Sunset20:1403:14
Evening civil twilight20:4403:44

Current date and time
Zulu (UTC)  18-May-2022 22:39:30
Local (UTC-7)  18-May-2022 15:39:30
 
METAR
KVCB 
6nm SE 
182153Z AUTO VRB05KT 10SM CLR 36/09 A2997 RMK AO2 SLP147 T03610089
KDWA 
11nm NE 
182215Z AUTO 36008G14KT 10SM CLR 36/03 A2996 RMK AO2
KEDU 
13nm E 
182120Z AUTO 10SM CLR 35/03 A2997 RMK AO1
KSUU 
13nm SE 
182158Z AUTO 23008KT 10SM CLR 35/08 A2995 RMK AO2 SLP148 T03480077 $
KAPC 
19nm SW 
182154Z 19012KT 10SM CLR 29/11 A2999 RMK AO2 SLP147 T02890106
TAF
KSUU 
13nm SE 
181851Z 1819/2001 23010G15KT 9999 SKC QNH2990INS BECMG 1822/1823 23015G25KT 9999 SKC QNH2986INS BECMG 1905/1906 23012G18KT 9999 SKC QNH2991INS TX36/1823Z TN10/1913Z
KAPC 
19nm SW 
181737Z 1818/1918 23007KT P6SM SKC FM182000 22010G19KT P6SM SKC FM190300 20007KT P6SM SKC FM191700 24011G17KT P6SM SKC
NOTAMs
Click for the latest NOTAMs
NOTAMs are issued by the DoD/FAA and will open in a separate window not controlled by AirNav.

 

 
 

Would you like to see your business listed on this page?

 If your business provides an interesting product or service to pilots, flight crews, aircraft, or users of the Blake Sky Park Airport, you should consider listing it here.  To start the listing process, click on the button below
 
Add a business
 

Other Pages about Blake Sky Park Airport

Update a link
 
Copyright © AirNav, LLC. All rights reserved. Privacy Policy  Contact